Wind_Speed
1 1 4 7 7 10 8 4 5 2 5 7 7 10 11 13 14 16 18 19 21 23 24 23 23 25 26 24 24 25 25 24 24 26 25 26 28 28 25 24 25 25 26 27
4 4 6 8 10 11 12 7 9 11 10 13 11 10 12 13 15 16 18 20 22 23 23 22 23 25 24 23 23 23 24 24 22 24 26 26 27 26 25 23 24 24 25 27
3 4 5 8 13 13 8 10 7 7 4 6 9 10 11 14 14 15 18 21 22 21 20 21 23 23 22 22 21 22 23 24 22 23 25 25 26 25 25 23 23 24 25 26
2 3 4 4 8 7 9 9 13 10 9 8 8 10 11 9 10 14 18 18 17 17 18 20 20 20 20 19 20 21 22 24 23 25 25 24 24 23 24 25 25 25 23 23
3 6 5 9 8 7 9 6 11 9 6 5 4 9 1 4 5 10 12 12 13 15 17 18 18 19 20 18 19 20 21 23 23 24 25 24 24 26 26 24 23 25 23 25
3 4 4 5 11 8 4 6 13 8 6 4 3 6 7 7 7 8 8 10 13 15 15 15 17 19 19 18 19 19 22 22 22 22 23 26 24 26 25 23 22 23 24 22
7 5 6 6 13 11 4 2 12 10 7 4 5 6 7 4 5 9 10 11 14 13 13 14 16 18 18 18 19 19 21 20 21 21 24 25 21 21 24 24 22 23 24 23
7 6 7 16 15 7 2 8 8 8 6 6 5 3 1 1 3 7 9 11 12 11 12 13 15 17 18 18 20 19 20 20 19 21 23 21 20 20 21 23 24 24 24 26
9 5 1 28 5 20 8 8 8 7 5 6 5 3 2 2 3 8 9 9 10 10 11 12 14 15 18 19 20 21 20 19 20 21 22 21 20 22 20 21 23 24 26 27
3 6 15 21 22 12 13 11 7 7 6 8 5 4 3 2 4 7 7 8 9 9 10 12 14 14 15 17 19 20 20 19 20 21 20 20 20 19 21 21 23 24 23 23
10 13 3 17 25 23 15 13 11 10 9 9 7 5 5 3 5 8 8 9 9 8 9 11 13 13 14 16 18 19 20 19 20 20 21 19 18 19 19 18 19 22 24 24
6 9 11 4 19 26 22 18 15 13 12 10 8 7 5 3 5 7 7 9 7 7 8 10 11 13 14 15 17 21 18 19 20 20 20 20 19 19 18 18 18 18 21 24
10 6 10 5 7 16 16 15 15 16 13 11 9 8 5 3 4 6 6 8 8 9 10 11 11 12 13 15 18 19 17 19 22 21 20 20 21 22 21 20 19 19 21 22
15 11 11 13 12 13 13 13 15 15 13 12 10 8 6 3 4 4 5 7 9 11 11 12 13 13 16 16 17 17 15 20 21 20 20 19 20 21 21 23 23 26 24 24
19 19 12 11 15 9 13 15 16 16 15 14 12 9 6 4 3 5 7 8 10 11 11 12 13 15 18 19 19 18 19 21 20 18 18 18 19 20 20 21 20 22 24 26
19 18 16 13 14 14 14 15 16 16 16 15 13 10 7 6 5 6 8 9 9 9 11 11 13 16 18 19 17 16 17 18 19 17 18 18 18 19 20 20 20 21 22 25
15 18 20 19 16 14 15 15 16 16 16 15 12 10 9 7 6 6 8 10 10 11 10 11 12 14 17 18 19 16 14 16 17 14 16 16 16 16 18 18 18 19 20 22
15 11 16 18 18 15 15 16 16 16 16 13 12 11 9 7 5 7 8 9 10 10 10 10 11 14 16 11 13 14 13 12 13 13 13 15 16 15 16 16 17 18 19 20
17 12 13 15 14 14 14 15 16 16 15 13 11 9 7 7 6 7 9 10 10 10 10 10 11 13 10 13 14 10 11 12 12 12 12 13 14 15 15 15 16 17 19 19
19 17 18 17 15 15 14 14 15 15 14 11 10 10 9 8 7 7 9 10 9 9 10 9 10 12 15 13 14 8 11 12 13 12 12 12 12 13 14 15 16 16 17 17
22 23 20 16 14 14 15 14 15 14 13 11 10 8 6 10 12 10 9 8 9 9 8 8 9 10 11 12 9 10 12 14 14 14 13 13 12 12 12 13 14 16 17 17
23 24 18 14 14 16 17 16 15 14 14 12 10 10 12 13 16 15 12 9 11 9 9 9 9 11 11 11 9 10 12 14 14 14 13 13 14 14 12 12 14 15 17 18
24 21 17 17 18 17 17 16 15 14 13 12 12 12 12 13 14 15 15 13 11 9 11 11 10 11 11 10 9 10 11 13 14 15 15 15 15 15 15 16 16 16 17 18
22 19 20 20 19 17 17 16 15 15 15 14 13 12 13 14 15 15 16 13 13 13 10 13 11 11 10 9 8 9 11 12 14 14 14 14 15 15 15 16 16 17 18 18
21 22 21 20 18 16 14 14 14 14 13 13 13 13 13 13 14 14 14 13 12 12 13 13 11 10 10 9 8 9 10 11 12 13 13 14 14 14 15 15 16 17 18 19
21 21 19 17 15 14 14 14 13 12 12 12 12 13 14 13 13 13 12 11 10 12 12 11 11 10 9 9 8 8 10 11 12 12 13 13 14 15 15 16 17 18 18 19
19 18 17 17 17 15 14 13 13 12 12 12 13 13 12 11 11 12 12 12 11 11 12 11 11 10 9 8 8 8 9 10 10 11 11 12 13 14 15 16 17 17 18 19
Wind_Direction
187 206 211 221 208 198 210 221 230 88 235 284 279 280 300 318 317 330 334 336 335 336 334 334 337 338 339 341 343 345 345 342 349 348 351 348 350 354 351 351 357 355 358 360
226 212 228 240 229 220 223 228 253 265 274 241 271 290 294 318 329 329 335 337 336 336 334 335 338 338 340 342 344 347 346 342 349 350 352 349 348 353 352 353 359 357 0 360
236 192 298 269 229 216 203 202 221 242 219 289 296 305 317 321 322 327 333 333 334 335 336 336 338 339 341 343 345 349 348 344 348 349 349 347 348 349 351 353 357 0 360 358
255 202 242 106 150 206 230 233 214 248 271 284 290 309 307 316 325 328 333 330 333 335 335 337 339 342 344 345 349 350 348 350 352 350 349 348 345 349 353 356 359 358 358 0
231 229 314 205 209 200 206 222 213 227 244 261 301 308 110 27 337 327 332 334 337 335 336 339 343 346 347 348 351 353 355 352 351 350 349 349 348 354 356 1 358 359 3 4
210 260 249 101 148 169 186 247 186 198 214 255 289 294 30 342 330 333 339 339 340 339 341 345 347 348 349 350 349 356 355 353 350 348 348 346 353 352 354 355 2 1 7 6
221 266 280 186 158 159 221 108 179 196 218 262 267 327 325 323 315 332 338 340 344 343 346 347 347 349 351 350 349 352 351 349 347 344 342 347 349 354 357 358 357 4 5 11
203 228 256 163 152 204 167 154 177 199 225 247 257 284 280 269 310 332 338 340 345 348 348 348 350 351 352 350 348 350 351 352 349 345 354 355 354 357 0 1 1 3 5 9
206 220 212 184 176 201 189 188 197 211 217 215 212 234 218 237 309 326 336 341 348 348 349 350 350 353 351 350 349 347 350 351 353 356 1 360 1 1 360 1 4 2 3 5
182 235 219 206 212 204 212 216 215 220 228 195 210 198 204 217 308 329 333 341 345 348 347 350 350 352 349 348 348 348 348 353 357 355 1 358 3 2 2 0 0 3 2 3
240 253 236 223 219 219 220 229 234 239 216 200 197 192 199 225 311 327 333 338 343 344 345 346 348 350 351 350 350 350 354 354 353 354 1 360 4 4 5 5 7 2 3 5
215 214 198 213 226 218 225 235 237 214 193 191 192 194 194 219 315 333 337 339 339 337 338 342 348 349 350 350 352 353 355 353 349 356 358 0 0 2 6 8 11 13 14 12
227 206 207 195 179 198 212 223 219 199 194 188 194 195 206 215 320 338 343 342 337 334 339 344 345 347 347 349 348 354 353 345 352 356 357 358 0 0 1 13 14 21 22 18
220 201 203 200 202 215 212 202 194 188 187 192 205 210 227 249 316 332 326 330 336 337 339 341 344 342 343 345 346 349 349 348 351 353 355 355 359 360 3 5 5 13 22 22
215 212 221 219 211 196 187 183 183 186 191 196 207 214 230 249 281 301 312 325 333 334 336 336 340 339 343 344 344 347 347 350 352 352 352 355 354 358 3 4 4 5 10 18
216 210 207 201 194 190 191 190 190 190 199 203 208 216 229 242 271 297 312 319 325 320 325 327 332 340 344 345 348 346 346 349 353 351 351 355 356 356 358 1 2 5 7 9
186 198 202 204 198 193 208 204 198 200 201 205 208 220 230 245 267 301 314 316 319 323 324 326 331 337 341 346 353 350 343 346 353 349 349 353 352 354 355 357 359 2 3 11
206 219 216 205 204 214 206 201 198 202 203 204 215 227 233 243 270 311 317 314 316 319 318 322 328 335 340 336 333 339 341 350 343 342 343 346 350 352 353 354 354 358 360 5
199 198 185 189 192 194 199 202 203 204 204 210 226 235 238 242 263 305 317 311 315 317 314 323 332 338 334 321 339 336 338 345 345 343 340 344 342 347 349 351 353 354 357 359
184 177 174 179 187 196 197 198 202 203 205 214 222 232 246 245 259 294 309 307 309 302 307 319 330 334 336 336 344 342 347 348 346 344 341 345 339 344 344 345 350 351 353 354
180 180 183 191 201 206 201 201 198 201 208 216 227 239 255 243 253 270 287 291 297 303 301 306 319 333 329 332 338 332 343 346 347 348 345 345 345 344 344 344 348 351 353 353
178 183 191 203 203 189 186 188 197 202 209 217 228 241 253 257 259 263 264 261 280 296 295 296 307 323 325 327 330 336 339 342 344 347 349 349 350 349 348 348 350 352 355 355
182 190 198 191 186 185 192 201 207 214 223 233 243 251 260 261 264 261 259 267 272 296 302 291 296 312 322 324 327 334 338 341 344 347 350 351 351 352 352 351 352 352 354 354
183 191 184 181 186 193 201 210 218 228 238 243 246 255 263 268 269 268 257 266 282 286 291 298 287 301 316 317 320 326 334 339 342 345 348 348 349 351 353 353 352 352 352 352
185 183 187 192 196 203 212 223 228 234 237 243 251 261 264 268 271 269 256 251 263 280 291 287 277 293 306 306 307 318 328 333 336 340 343 346 349 351 352 352 351 350 349 350
185 189 194 201 208 211 219 227 229 231 236 247 255 265 273 273 267 262 250 252 272 284 283 268 268 285 295 291 297 310 320 326 332 337 341 344 347 349 349 349 349 350 350 349
193 197 201 210 219 224 229 233 234 241 243 250 259 270 270 268 260 247 245 253 267 281 275 261 266 281 284 280 288 299 309 317 326 331 337 340 343 344 346 347 349 350 351 351
Height
1592 1592 1593 1595 1593 1601 1608 1600 1598 1599 1601 1595 1594 1593 1591 1589 1587 1584 1580 1577 1574 1570 1566 1562 1557 1552 1546 1540 1534 1528 1522 1516 1508 1502 1496 1490 1485 1479 1473 1467 1460 1452 1445 1440
1592 1593 1592 1590 1588 1590 1594 1600 1602 1600 1596 1590 1590 1589 1587 1583 1582 1580 1578 1575 1572 1568 1564 1560 1555 1549 1544 1538 1533 1527 1522 1514 1508 1504 1498 1492 1485 1478 1473 1468 1461 1454 1447 1440
1585 1590 1595 1592 1585 1580 1585 1587 1588 1586 1584 1585 1584 1582 1581 1580 1580 1578 1576 1573 1570 1566 1562 1558 1553 1548 1542 1537 1532 1527 1522 1514 1508 1504 1499 1493 1486 1479 1473 1468 1461 1455 1449 1441
1585 1590 1588 1575 1576 1578 1578 1578 1580 1579 1578 1578 1579 1578 1578 1577 1577 1576 1574 1571 1567 1564 1560 1556 1551 1546 1541 1536 1532 1527 1521 1515 1509 1504 1499 1493 1486 1478 1472 1468 1462 1456 1450 1444
1588 1576 1565 1570 1573 1576 1576 1570 1571 1572 1572 1574 1575 1576 1571 1574 1575 1574 1571 1568 1565 1562 1558 1554 1549 1544 1540 1536 1531 1526 1520 1515 1510 1505 1498 1492 1483 1476 1472 1467 1464 1458 1451 1444
1590 1582 1565 1556 1565 1572 1575 1566 1566 1568 1570 1571 1572 1567 1567 1573 1572 1571 1568 1566 1563 1560 1557 1553 1548 1543 1539 1535 1530 1525 1521 1516 1510 1505 1498 1490 1484 1478 1472 1468 1464 1459 1452 1447
1587 1583 1562 1557 1566 1573 1573 1559 1562 1565 1567 1568 1569 1569 1571 1571 1570 1568 1566 1563 1560 1558 1555 1551 1547 1543 1539 1535 1529 1525 1521 1516 1510 1504 1497 1491 1486 1481 1474 1468 1465 1461 1455 1447
1579 1582 1569 1558 1567 1565 1557 1559 1561 1563 1564 1566 1567 1568 1568 1569 1568 1566 1564 1561 1559 1556 1553 1550 1546 1542 1538 1534 1528 1525 1522 1517 1510 1503 1496 1491 1486 1482 1477 1471 1465 1460 1456 1450
1559 1554 1553 1555 1551 1555 1557 1558 1560 1561 1562 1563 1565 1566 1566 1566 1565 1563 1562 1560 1557 1555 1552 1549 1546 1541 1537 1533 1528 1524 1521 1517 1510 1503 1497 1492 1487 1482 1478 1473 1468 1462 1457 1451
1556 1544 1550 1552 1553 1554 1556 1557 1559 1560 1560 1561 1562 1564 1564 1564 1562 1561 1560 1558 1555 1553 1551 1548 1544 1541 1537 1533 1528 1524 1519 1514 1511 1504 1498 1494 1489 1484 1479 1474 1468 1464 1459 1456
1544 1543 1546 1546 1547 1550 1552 1554 1556 1557 1558 1559 1560 1561 1562 1561 1560 1559 1557 1555 1553 1551 1549 1546 1543 1540 1536 1532 1527 1522 1517 1514 1511 1504 1499 1495 1490 1486 1482 1478 1472 1465 1459 1455
1532 1533 1535 1536 1538 1543 1547 1550 1552 1554 1555 1556 1557 1558 1559 1559 1558 1557 1555 1553 1552 1550 1547 1545 1542 1539 1535 1531 1526 1521 1518 1515 1509 1503 1499 1495 1491 1487 1484 1479 1474 1468 1462 1455
1528 1532 1534 1536 1537 1539 1543 1545 1548 1550 1552 1553 1554 1555 1556 1557 1556 1555 1554 1552 1549 1547 1545 1543 1540 1538 1534 1529 1525 1521 1519 1514 1508 1503 1499 1496 1491 1487 1483 1478 1475 1470 1464 1457
1526 1529 1531 1532 1534 1536 1538 1541 1543 1547 1549 1550 1551 1552 1553 1554 1554 1554 1552 1550 1548 1545 1543 1541 1539 1536 1532 1528 1524 1521 1518 1513 1508 1504 1500 1496 1492 1488 1483 1479 1474 1469 1464 1461
1520 1522 1526 1528 1531 1532 1535 1537 1540 1543 1545 1547 1548 1549 1550 1551 1551 1551 1550 1548 1546 1544 1541 1539 1537 1534 1531 1527 1523 1519 1516 1512 1508 1504 1501 1497 1493 1489 1485 1480 1476 1472 1467 1462
1515 1519 1522 1525 1527 1530 1532 1534 1537 1540 1542 1544 1545 1547 1548 1548 1548 1548 1547 1546 1544 1542 1539 1537 1535 1533 1529 1525 1522 1518 1515 1511 1508 1505 1501 1497 1493 1489 1485 1481 1478 1473 1469 1465
1512 1516 1518 1521 1524 1527 1529 1531 1534 1536 1538 1541 1543 1544 1544 1545 1545 1545 1545 1543 1541 1539 1537 1535 1534 1531 1527 1524 1521 1518 1515 1512 1509 1507 1503 1498 1494 1491 1487 1483 1479 1475 1471 1467
1508 1512 1514 1517 1520 1523 1526 1528 1530 1533 1536 1538 1540 1541 1541 1543 1543 1543 1541 1540 1538 1536 1535 1533 1531 1529 1526 1523 1521 1518 1514 1512 1510 1508 1504 1500 1496 1492 1488 1484 1481 1477 1473 1469
1504 1508 1510 1514 1517 1520 1523 1525 1527 1530 1533 1535 1537 1539 1540 1540 1540 1539 1538 1537 1536 1534 1533 1531 1529 1527 1525 1522 1519 1517 1514 1511 1509 1507 1503 1500 1497 1493 1489 1485 1482 1478 1474 1470
1500 1505 1509 1512 1515 1518 1520 1522 1525 1528 1531 1533 1535 1536 1536 1537 1538 1537 1536 1535 1534 1532 1530 1529 1527 1525 1522 1519 1517 1516 1513 1511 1508 1505 1502 1499 1496 1493 1489 1485 1481 1478 1475 1471
1496 1503 1507 1511 1514 1516 1518 1520 1523 1525 1527 1529 1531 1532 1533 1533 1533 1532 1532 1530 1529 1528 1527 1526 1525 1523 1521 1518 1516 1514 1511 1508 1505 1502 1499 1496 1494 1492 1489 1485 1481 1477 1474 1471
1495 1500 1505 1508 1510 1513 1515 1517 1519 1521 1523 1525 1526 1527 1528 1527 1527 1527 1527 1527 1525 1524 1523 1522 1521 1519 1517 1515 1513 1511 1509 1507 1505 1502 1499 1496 1493 1490 1487 1485 1481 1478 1474 1471
1494 1499 1503 1505 1508 1511 1513 1515 1517 1519 1520 1522 1522 1522 1523 1523 1523 1522 1522 1522 1521 1521 1520 1519 1518 1516 1514 1512 1510 1509 1507 1504 1502 1500 1498 1495 1492 1489 1486 1483 1480 1477 1474 1471
1493 1497 1501 1504 1506 1508 1511 1513 1514 1515 1517 1518 1518 1519 1519 1518 1518 1517 1517 1517 1517 1516 1516 1515 1514 1513 1511 1510 1508 1506 1504 1502 1500 1498 1495 1493 1491 1488 1485 1482 1480 1477 1474 1470
1493 1496 1499 1502 1504 1506 1509 1511 1512 1512 1513 1514 1514 1514 1514 1513 1513 1512 1512 1512 1512 1512 1511 1511 1510 1509 1508 1507 1505 1503 1502 1500 1498 1496 1493 1491 1489 1487 1484 1482 1479 1476 1472 1469
1492 1495 1498 1501 1503 1504 1505 1507 1508 1508 1509 1509 1510 1509 1509 1509 1509 1508 1508 1509 1509 1508 1507 1506 1506 1505 1505 1504 1503 1502 1501 1500 1498 1496 1494 1491 1489 1486 1484 1481 1478 1475 1472 1468
1492 1494 1496 1499 1500 1502 1503 1504 1505 1505 1505 1506 1506 1505 1504 1504 1504 1504 1505 1505 1504 1504 1503 1503 1502 1501 1500 1500 1500 1500 1499 1497 1496 1494 1491 1489 1487 1485 1482 1479 1476 1473 1470 1467